Kansas City International, MO

7:47 AM CST on December 13, 2017 (GMT -0600)
Kansas City International

Weather History for KMCI - April, 2014

Change the Weather History Date:

Sunday, April 27, 2014

  Actual Average Record
Temperature  
Mean Temperature 62 °F 59 °F  
Max Temperature 74 °F 69 °F 90 °F (1989)
Min Temperature 50 °F 48 °F 32 °F (1988)
Degree Days  
Heating Degree Days 3 7  
Month to date heating degree days 300 308  
Since 1 July heating degree days 5631 4999  
Cooling Degree Days 0 1  
Month to date cooling degree days 9 21  
Year to date cooling degree days 9 24  
Growing Degree Days 15 (Base 50)    
Moisture  
Dew Point 59 °F    
Average Humidity 74    
Maximum Humidity 100    
Minimum Humidity 47    
Precipitation  
Precipitation 1.72 in 0.15 in 2.64 in (1917)
Month to date precipitation 3.71 3.23  
Year to date precipitation 7.07 8.13  
Snow  
Snow 0.00 in 0.00 in 0.00 in ()
Month to date snowfall 0.1 0.6  
Since 1 July snowfall 26.1 18.8  
Snow Depth 0.00 in    
Sea Level Pressure  
Sea Level Pressure 29.42 in    
Wind  
Wind Speed 18 mph (SE)    
Max Wind Speed 44 mph    
Max Gust Speed 58 mph    
Visibility 8 miles    
Events Rain , Hail , Thunderstorm    
T = Trace of Precipitation, MM = Missing Value Source: NWS Daily Summary

Daily Weather History Graph

Daily Weather History Graph

Search for Another Location

Airport or City:

Trip Planner

Search our weather history database for the weather conditions in past years. The results will help you decide how hot, cold, wet, or windy it might be!

Date:

Astronomy

Apr. 27, 2014 Rise Set
Actual Time 6:25 AM CDT 8:08 PM CDT
Civil Twilight 5:56 AM CDT 8:37 PM CDT
Nautical Twilight 5:22 AM CDT 9:11 PM CDT
Astronomical Twilight 4:45 AM CDT 9:48 PM CDT
Moon 5:25 AM CDT (4/27) 6:43 PM CDT (4/27)
Length of Visible Light 14h 40m
Length of Day
13h 43m
Waning Crescent, 3% of the Moon is Illuminated
Apr 27
Waning Crescent
Apr 29
New
May 6
First Quarter
May 14
Full
May 21
Last Quarter

Hourly Weather History & Observations

Time (CDT) Temp. Dew Point Humidity Pressure Visibility Wind Dir Wind Speed Gust Speed Precip Events Conditions
12:53 AM 69.1 °F 48.9 °F 49% 29.54 in 10.0 mi SSE 17.3 mph - N/A   Partly Cloudy
1:53 AM 69.1 °F 51.1 °F 53% 29.53 in 10.0 mi SSE 15.0 mph - N/A   Mostly Cloudy
2:53 AM 69.1 °F 53.1 °F 57% 29.50 in 10.0 mi SSE 16.1 mph - N/A   Mostly Cloudy
3:53 AM 68.0 °F 54.0 °F 61% 29.49 in 10.0 mi SE 13.8 mph - N/A   Overcast
4:53 AM 70.0 °F 57.0 °F 63% 29.48 in 10.0 mi SSE 20.7 mph 27.6 mph 0.00 in Rain , Thunderstorm Light Rain
5:04 AM 70.0 °F 57.0 °F 63% 29.52 in 10.0 mi SSE 16.1 mph - 0.00 in Rain , Thunderstorm Light Rain
5:13 AM 69.1 °F 57.9 °F 68% 29.52 in 10.0 mi South 15.0 mph - 0.00 in   Overcast
5:23 AM 70.0 °F 59.0 °F 68% 29.52 in 10.0 mi South 16.1 mph - 0.00 in   Overcast
5:53 AM 69.1 °F 59.0 °F 70% 29.49 in 10.0 mi SSE 15.0 mph - 0.00 in   Overcast
6:23 AM 69.1 °F 59.0 °F 70% 29.51 in 10.0 mi SSE 16.1 mph 26.5 mph N/A   Overcast
6:53 AM 69.1 °F 59.0 °F 70% 29.47 in 7.0 mi SSE 18.4 mph - N/A   Overcast
7:53 AM 70.0 °F 61.0 °F 73% 29.43 in 9.0 mi SSE 18.4 mph - N/A   Mostly Cloudy
8:53 AM 71.1 °F 62.1 °F 73% 29.44 in 9.0 mi SSE 16.1 mph - N/A   Overcast
9:53 AM 73.0 °F 61.0 °F 66% 29.44 in 10.0 mi South 23.0 mph 36.8 mph N/A   Overcast
10:53 AM 73.4 °F 60.8 °F 65% 29.45 in 10.0 mi South 25.3 mph 28.8 mph N/A   Overcast
11:41 AM 71.1 °F 61.0 °F 70% 29.43 in 10.0 mi South 13.8 mph 27.6 mph 0.00 in Rain , Thunderstorm Light Thunderstorms and Rain
11:49 AM 68.0 °F 60.8 °F 78% 29.50 in 0.2 mi SW 42.6 mph 57.5 mph 0.00 in Rain , Thunderstorm Heavy Thunderstorms and Rain
11:53 AM 59.0 °F 55.9 °F 90% 29.49 in 0.8 mi SW 26.5 mph 57.5 mph 0.06 in Rain , Hail , Thunderstorm Light Thunderstorms with Hail
11:55 AM 57.0 °F 55.9 °F 96% 29.48 in 1.0 mi WSW 24.2 mph 57.5 mph 0.33 in Rain , Thunderstorm Heavy Thunderstorms and Rain
12:00 PM 57.0 °F 55.9 °F 96% 29.50 in 2.5 mi WSW 10.4 mph 49.5 mph 0.42 in Rain , Thunderstorm Heavy Thunderstorms and Rain
12:09 PM 57.0 °F 55.9 °F 96% 29.48 in 4.0 mi WSW 8.1 mph - 0.44 in Rain , Thunderstorm Thunderstorms and Rain
12:37 PM 57.9 °F 57.9 °F 100% 29.47 in 10.0 mi North 5.8 mph - 0.46 in Rain , Thunderstorm Light Thunderstorms and Rain
12:53 PM 57.0 °F 57.0 °F 100% 29.47 in 6.0 mi North 5.8 mph - 0.48 in Rain , Thunderstorm Light Thunderstorms and Rain
1:48 PM 57.2 °F 57.2 °F 100% 29.34 in 3.0 mi NE 15.0 mph - 0.10 in Rain Light Rain
1:53 PM 57.0 °F 57.0 °F 100% 29.29 in 10.0 mi NE 16.1 mph - 0.10 in   Mostly Cloudy
2:47 PM 60.8 °F 60.8 °F 100% 29.39 in 10.0 mi East 24.2 mph - N/A   Mostly Cloudy
2:53 PM 60.8 °F 60.8 °F 100% 29.38 in 10.0 mi ESE 25.3 mph 32.2 mph N/A   Mostly Cloudy
3:22 PM 63.0 °F 63.0 °F 100% 29.37 in 10.0 mi ESE 21.9 mph 32.2 mph N/A   Mostly Cloudy
3:53 PM 64.0 °F 64.0 °F 100% 29.35 in 10.0 mi ESE 18.4 mph - N/A   Mostly Cloudy
4:53 PM 69.1 °F 60.1 °F 73% 29.33 in 10.0 mi SE 18.4 mph 26.5 mph N/A   Mostly Cloudy
5:22 PM 69.1 °F 60.1 °F 73% 29.36 in 10.0 mi SE 16.1 mph 25.3 mph N/A   Mostly Cloudy
5:53 PM 68.0 °F 61.0 °F 78% 29.32 in 10.0 mi SE 17.3 mph - N/A   Overcast
6:53 PM 66.9 °F 61.0 °F 81% 29.31 in 10.0 mi ESE 31.1 mph 39.1 mph 0.00 in Rain , Thunderstorm Light Thunderstorms and Rain
7:00 PM 64.9 °F 62.1 °F 90% 29.37 in 1.8 mi SE 24.2 mph 48.3 mph 0.10 in Rain , Thunderstorm Light Thunderstorms and Rain
7:05 PM 64.9 °F 63.0 °F 93% 29.36 in 3.0 mi SE 17.3 mph 40.3 mph 0.22 in Rain , Thunderstorm Light Thunderstorms and Rain
7:27 PM 64.9 °F 61.0 °F 87% 29.35 in 10.0 mi SE 17.3 mph 29.9 mph 0.23 in   Mostly Cloudy
7:53 PM 64.0 °F 61.0 °F 90% 29.34 in 6.0 mi SE 23.0 mph 29.9 mph 0.27 in Rain , Thunderstorm Light Thunderstorms and Rain
8:04 PM 64.0 °F 60.1 °F 87% 29.38 in 2.5 mi SE 13.8 mph 40.3 mph 0.20 in Rain , Thunderstorm Heavy Thunderstorms and Rain
8:38 PM 64.9 °F 63.0 °F 93% 29.37 in 10.0 mi East 8.1 mph - 0.81 in Rain Light Rain
8:53 PM 64.9 °F 62.1 °F 90% 29.35 in 10.0 mi ESE 11.5 mph - 0.81 in   Overcast
9:00 PM 64.9 °F 62.1 °F 90% 29.37 in 10.0 mi ESE 12.7 mph - N/A   Mostly Cloudy
9:53 PM 64.0 °F 62.1 °F 93% 29.34 in 10.0 mi SE 15.0 mph - N/A   Mostly Cloudy
10:53 PM 64.0 °F 61.0 °F 90% 29.35 in 10.0 mi SE 17.3 mph - N/A   Mostly Cloudy
11:53 PM 62.6 °F 60.8 °F 94% 29.35 in 10.0 mi SE 17.3 mph - N/A   Mostly Cloudy